Regional Weather Roundup
Issued by NWS

Home | Current Version | Previous Version | Text Only | Print | Product List | Glossary On
Versions: 1 2 3 4 5 6 7 8 9 10 11 12 13 14 15 16 17 18 19 20 21 22 23 24 25 26 27 28 29 30 31 32 33 34 35 36 37 38 39 40 41 42 43 44 45 46 47 48 49 50
000
ASUS42 KTBW 240817
RWRFL
FLORIDA REGIONAL WEATHER ROUNDUP
NATIONAL WEATHER SERVICE TAMPA BAY RUSKIN FL
400 AM EDT TUE OCT 24 2017

NOTE: "FAIR" INDICATES FEW OR NO CLOUDS BELOW 12,000 FEET WITH NO
SIGNIFICANT WEATHER AND/OR OBSTRUCTIONS TO VISIBILITY.

FLZ001>010-012>015-112-114-115-240900-
PANHANDLE FLORIDA

CITY           SKY/WX    TMP DP  RH WIND       PRES   REMARKS
PENSACOLA      CLEAR     57  52  83 NW5       30.02S
PENSACOLA NAS  CLEAR     56  53  90 NW5       30.02F
MILTON NAS     CLEAR     55  54  96 NW5       30.02S
CRESTVIEW      CLEAR     52  50  93 CALM      30.03S
DUKE FIELD     FAIR      51  49  94 CALM      30.01S
VALPARAISO     CLEAR     53  51  90 NW3       30.02R
MARY ESTHER    CLEAR     57  54  90 CALM      30.01S
PANAMA CITY    FAIR      55  52  89 CALM      29.99S
TYNDALL AFB    CLEAR     60  54  79 N7        29.98F
APALACHICOLA     N/A    N/A N/A N/A MISG      29.97F

STATION/POSITION SKY/WX   TEMP    WIND        PRES    WAVE   SWELL
                          AIR SEA DIR/SP/G            HT/PER HT/PER
                          (F)     (DEG/KT/KT) (MB)    (FT/S) (FT/S)
30.1N   87.6W                 78              1016.5F   2/ 7   2/ 7
29.2N   88.2W              72     360/ 12/ 16 1016.8
28.8N   86.0W              72 81  350/ 14/ 19 1014.5S   4/ 6
PANAMA CITY BEAC           59 77  330/  6/  8 1016.2F
TOWER C                    65      10/ 17/ 18 1015.0F
28.5N   84.5W              74 80  350/ 14/ 17 1013.6F   4/ 7   3/ 7

$$
FLZ011-016>038-118-127-128-134-139-239-240900-
NORTH FLORIDA

CITY           SKY/WX    TMP DP  RH WIND       PRES   REMARKS
MARIANNA       PTCLDY    54  53  97 W3        29.98S
TALLAHASSEE    CLEAR     58  54  86 NW3       29.96F
PERRY          CLEAR     59  55  87 N5        29.96F
LIVE OAK       CLEAR     59  59 100 NW3       29.96S
CROSS CITY     CLEAR     61  59  94 N5        29.99R
LAKE CITY      FAIR      59  59 100 N7        29.94R
GAINESVILLE    PTCLDY    66  62  87 NW6       29.95S
WILLISTON      PTCLDY    70  70 100 CALM      29.92F
PALATKA        CLOUDY    70  70 100 W3        29.92S
JACKSONVILLE   PTCLDY    68  61  78 NW8       29.91S
JAX NAS        MOCLDY    72  70  94 W6        29.92S
JAX CECIL      CLOUDY    66  66 100 NW10      29.92R
ST AUGUSTINE   CLOUDY    72  70  93 CALM      29.92R
PALM COAST     CLOUDY    72  71  97 SW5       29.91S

STATION/POSITION SKY/WX   TEMP    WIND        PRES    WAVE   SWELL
                          AIR SEA DIR/SP/G            HT/PER HT/PER
                          (F)     (DEG/KT/KT) (MB)    (FT/S) (FT/S)
SHELL POINT      NOT AVBL
KEATON BEACH               62     350/  6/  9 1013.9S
CEDAR KEY                  68     350/  5/  8 1013.9R
FERNANDINA                 69 77  330/  5/  7 1013.9R
30.7N   81.3W                 77                N/A     3/ 6
MAYPORT                    72 77  270/ 10/ 13 1013.1R
31.4N   80.9W              71 77  310/ 17/ 21 1011.8R   4/ 7   3/ 7
ST AUGUSTINE               72 78  220/  3/  4 1013.1R

$$
FLZ040-043>046-052-053-057-058-063-144-240900-
INTERIOR CENTRAL FLORIDA

CITY           SKY/WX    TMP DP  RH WIND       PRES   REMARKS
OCALA          CLOUDY    71  69  93 W3        29.93S
THE VILLAGES     N/A     70  70 100 CALM      29.82S
LEESBURG       PTCLDY    73  72  96 S3        29.92F
SANFORD        CLEAR     73  72  96 S9        29.91F
ORLANDO INTL   PTCLDY    71  71 100 SE5       29.92F
KISSIMMEE      CLEAR     72  71  97 SW5       29.94S
WINTER HAVEN     N/A    N/A N/A N/A MISG      29.93F
LAKELAND       PTCLDY    70  70 100 CALM      29.93F
BARTOW         FAIR      70 N/A N/A S6        29.93S
SEBRING        PTSUNNY   74  71  90 CALM      29.94S
OKEECHOBEE     CLOUDY    73  72  94 CALM      29.93S

$$
FLZ041-047-054-059-064-141-147-240900-
EAST CENTRAL FLORIDA

CITY           SKY/WX    TMP DP  RH WIND       PRES   REMARKS
DAYTONA BEACH  PTCLDY    73  72  96 SW7       29.90F
DELAND         CLEAR     72  72 100 SW6       29.91S
JFK SPACE CTR  CLOUDY    74  74 100 SW12      29.89S
CAPE CANAVERAL CLOUDY    74  72  92 SW14      29.89R
PATRICK AFB    CLOUDY    74  74 100 SW15      29.91F
MELBOURNE      HVY RAIN  75  73  93 W13       29.93F FOG
VERO BEACH     CLOUDY    76  74  93 SW6       29.92F
FT PIERCE      CLOUDY    75  74  96 CALM      29.92F
STUART         CLOUDY    79  75  89 CALM      29.94S

STATION/POSITION SKY/WX   TEMP    WIND        PRES    WAVE   SWELL
                          AIR SEA DIR/SP/G            HT/PER HT/PER
                          (F)     (DEG/KT/KT) (MB)    (FT/S) (FT/S)
28.5N   80.2W              78     250/ 17/ 21 1012.6
TRIDENT PIER               75 80  200/ 12/ 16 1014.1F
28.4N   80.5W                 80                N/A     3/ 5
27.5N   80.2W                 82                N/A     3/ 9

$$
FLZ050-056-061-142-242-148-248-149-249-151-251-155-255-
160-260-240900-
WEST CENTRAL FLORIDA

CITY           SKY/WX    TMP DP  RH WIND       PRES   REMARKS
CRYSTAL RIVER  CLOUDY    72  68  88 NW3       29.93R
INVERNESS      CLOUDY    72  72 100 CALM      29.93R
BROOKSVILLE    CLOUDY    73  72  96 CALM      29.92F
CLEARWATER AIR CLOUDY    73  73 100 CALM      29.91F
ST PETE CLEARW NOT AVBL
TAMPA INTL     PTCLDY    77  73  87 S6        29.92F
TAMPA EXEC     PTCLDY    70  70 100 CALM      29.93S FOG
PLANT CITY     PTCLDY    73  70  88 S3        29.94S
MACDILL AFB    CLEAR     77  72  83 VRB3      29.92F
PETER O KNIGHT MOCLDY    75  75 100 SW6       29.92S
ST PETERSBURG  PTCLDY    77  74  90 SW5       29.90S
SARASOTA       CLOUDY    78  73  84 S8        29.90F
VENICE         FAIR      79  73  83 S7        29.92F

STATION/POSITION SKY/WX   TEMP    WIND        PRES    WAVE   SWELL
                          AIR SEA DIR/SP/G            HT/PER HT/PER
                          (F)     (DEG/KT/KT) (MB)    (FT/S) (FT/S)
CLEARWATER BEACH           78 79  220/ 11/ 12 1013.0F
MIDDLE TAMPA BAY           76     180/  5/  6 1013.0F
VENICE                     79 80  180/  9/ 10 1013.0F

$$
FLZ066-069-070-075>078-162-262-165-265-240900-
SOUTHWEST FLORIDA AND KEYS

CITY           SKY/WX    TMP DP  RH WIND       PRES   REMARKS
PUNTA GORDA    CLOUDY    74  72  93 S3        29.93F
FT MYERS       LGT RAIN  71  71 100 N6        29.92R
SOUTHWEST INTL LGT RAIN  75  75 100 N6        29.92S
NAPLES         LGT RAIN  75  75 100 SW6       29.91F
MARCO ISLAND     N/A     79  75  89 NW5       29.93F
IMMOKALEE      MOCLDY    77  75  94 CALM      29.92F
MARATHON       PTCLDY    82  74  76 SE12      29.92F
KEY WEST INTL  CLOUDY    82  75  79 SE12      29.92S

STATION/POSITION SKY/WX   TEMP    WIND        PRES    WAVE   SWELL
                          AIR SEA DIR/SP/G            HT/PER HT/PER
                          (F)     (DEG/KT/KT) (MB)    (FT/S) (FT/S)
NAPLES                        82  240/ 12/ 13 1012.9F
DRY TORTUGAS               80     130/ 15/ 17 1012.8F
SAND KEY                   82                 1013.7S
MOLASSES REEF              82 83  100/  8/ 11 1013.9F

$$
FLZ067-068-071>074-168-172>174-240900-
SOUTHEAST FLORIDA

CITY           SKY/WX    TMP DP  RH WIND       PRES   REMARKS
W PALM BEACH   CLOUDY    78  73  84 W3        29.93S
FT LAUDER-EXEC CLOUDY    78  73  84 S5        29.92F
FT LAUDERDALE  CLOUDY    79  74  84 S6        29.91F
POMPANO BEACH  CLOUDY    80  73  79 S5        29.92F
PEMBROKE PINES CLOUDY    79  72  79 CALM      29.94S
OPA LOCKA      CLOUDY    78  74  87 S5        29.93F
MIAMI          CLOUDY    80  75  84 S3        29.93F
WEST KENDALL   PTCLDY    77  74  90 CALM      29.93F
HOMESTEAD      CLEAR     76  76 100 CALM      29.92F

STATION/POSITION SKY/WX   TEMP    WIND        PRES    WAVE   SWELL
                          AIR SEA DIR/SP/G            HT/PER HT/PER
                          (F)     (DEG/KT/KT) (MB)    (FT/S) (FT/S)
PORT EVERGLADES            81     170/ 11/ 16 1013.2F
VIRGINIA KEY               81 82  150/  7/  9 1013.0F
LAKE WORTH                 79 82  190/  6/  7 1014.4F
FOWEY ROCKS                81 82  160/ 16/ 17 1013.9F
SETTLEMENT POINT           81     170/  7/ 10 1013.7F

$$




USA.gov is the U.S. government's official web portal to all federal, state and local government web resources and services.